Flag for U.S.A. Weather past 2 weeks in Hudson, Wisconsin, U.S.A.

Now
70 °F

Overcast.


Feels Like: 68 °F
Forecast: 64 / 82 °F
Wind: 9 mph from Southeast

Location: St. Paul Downtown Holman Field

Current Time: Aug 23, 2014 at 11:10:06 AM

Latest Report: Aug 23, 2014 at 9:53 AM


Visibility: 10 mi

Pressure: 29.99 "Hg

Humidity: 87%

Dew point: 66 °F

Location of HudsonLocation

Historic Weather in Hudson — Graph

°F

Hudson temperature yesterday

Maximum temperature yesterday: 77 °F (at 2:53 PM)
Minimum temperature yesterday: 70 °F (at 7:53 AM)
Average temperature yesterday: 73 °F

Past Weeks' High & Low Weather Summary

 TemperatureHumidityPressure
High86 °F (Aug 18, 4:53 PM)100% (Aug 12, 5:53 AM)30.14 "Hg (Aug 12, 5:53 AM)
Low56 °F (Aug 12, 5:53 AM)35% (Aug 12, 4:53 PM)29.62 "Hg (Aug 18, 7:53 PM)
Average72 °F74%29.93 "Hg
* Reported Aug 8 9:53 AM — Aug 23 9:53 AM, Hudson, Weather by CustomWeather, © 2014

Note: Actual official high and low records may vary slightly from our data, if they occured in-between our weather recording intervals... More about our weather records

Advertising

Hudson weather history for previous 24 hours

 ConditionsComfort  
Time TempWeatherWind HumidityBarometerVisibility
9:53 AM
Aug 23
70 °FOvercast.9 mph87%29.99 "Hg10 mi
8:53 AM70 °FLow clouds.5 mph87%29.98 "Hg10 mi
7:53 AM70 °FLow clouds.8 mph90%29.99 "Hg10 mi
6:53 AM70 °FLow clouds.10 mph90%29.98 "Hg8 mi
5:53 AM70 °FLow clouds.7 mph90%29.98 "Hg9 mi
4:53 AM70 °FLow clouds.6 mph90%29.95 "Hg10 mi
3:53 AM69 °FLow clouds.3 mph93%29.97 "Hg9 mi
2:53 AM70 °FLow clouds.8 mph93%29.98 "Hg10 mi
1:53 AM70 °FClear.3 mph90%29.97 "Hg10 mi
12:53 AM71 °FClear.No wind90%29.99 "Hg10 mi
11:53 PM
Aug 22
71 °FClear.3 mph90%30.00 "Hg10 mi
10:53 PM73 °FOvercast.5 mph84%30.00 "Hg10 mi
9:53 PM74 °FOvercast.No wind79%30.01 "Hg10 mi
8:53 PM74 °FOvercast.3 mph82%29.99 "Hg10 mi
7:53 PM74 °FOvercast.8 mph82%29.98 "Hg10 mi
6:53 PM76 °FOvercast.7 mph74%29.96 "Hg10 mi
5:53 PM76 °FOvercast.8 mph77%29.96 "Hg10 mi
4:53 PM77 °FOvercast.6 mph74%29.95 "Hg10 mi
3:53 PM77 °FOvercast.3 mph74%29.94 "Hg10 mi
2:53 PM77 °FOvercast.6 mph77%29.95 "Hg10 mi
1:53 PM76 °FOvercast.3 mph77%29.96 "Hg10 mi
1:02 PM74 °FOvercast.No wind82%29.98 "Hg10 mi
11:53 AM74 °FOvercast.No wind79%29.95 "Hg10 mi
Weather by CustomWeather, © 2014

See weather overviewHow to use our weather pages